Milwaukee, WI

2:55 AM CDT on August 24, 2017 (GMT -0500)
Gen Mitchell International

Weather History for KMKE - September, 2012

Change the Weather History Date:

Monday, September 24, 2012

  Actual Average Record
Temperature  
Mean Temperature 55 °F 60 °F  
Max Temperature 70 °F 68 °F 92 °F (1891)
Min Temperature 39 °F 51 °F 32 °F (1942)
Degree Days  
Heating Degree Days 10 6  
Month to date heating degree days 99 79  
Since 1 July heating degree days 99 105  
Cooling Degree Days 0 1  
Month to date cooling degree days 70 64  
Year to date cooling degree days 1041 629  
Growing Degree Days 4 (Base 50)    
Moisture  
Dew Point 34 °F    
Average Humidity 53    
Maximum Humidity 79    
Minimum Humidity 26    
Precipitation  
Precipitation 0.00 in 0.11 in 1.57 in (1899)
Month to date precipitation 2.31 2.57  
Year to date precipitation 22.16 26.75  
Snow  
Snow 0.00 in 0.00 in 0.00 in ()
Month to date snowfall 0.0 0.0  
Since 1 July snowfall 0.0 0.0  
Since 1 September snowfall 0.0 0.0  
Snow Depth 0.00 in    
Sea Level Pressure  
Sea Level Pressure 30.03 in    
Wind  
Wind Speed 12 mph (SW)    
Max Wind Speed 26 mph    
Max Gust Speed 35 mph    
Visibility 10 miles    
Events      
T = Trace of Precipitation, MM = Missing Value Source: NWS Daily Summary

Daily Weather History Graph

Daily Weather History Graph

Search for Another Location

Airport or City:

Trip Planner

Search our weather history database for the weather conditions in past years. The results will help you decide how hot, cold, wet, or windy it might be!

Date:

Astronomy

Sep. 24, 2012 Rise Set
Actual Time 6:41 AM CDT 6:44 PM CDT
Civil Twilight 6:13 AM CDT 7:12 PM CDT
Nautical Twilight 5:40 AM CDT 7:45 PM CDT
Astronomical Twilight 5:06 AM CDT 8:19 PM CDT
Moon 3:36 PM CDT 12:50 AM CDT
Length of Visible Light 12h 59m
Length of Day
12h 02m
Waxing Gibbous, 71% of the Moon is Illuminated
Sep 24
Waxing Gibbous
Sep 29
Full
Oct 8
Last Quarter
Oct 15
New
Oct 21
First Quarter

Hourly Weather History & Observations

Time (CDT) Temp. Windchill Dew Point Humidity Pressure Visibility Wind Dir Wind Speed Gust Speed Precip Events Conditions
12:52 AM 46.0 °F 43.9 °F 32.0 °F 58% 30.22 in 10.0 mi West 4.6 mph - N/A   Partly Cloudy
1:52 AM 43.0 °F 41.3 °F 32.0 °F 65% 30.21 in 10.0 mi WSW 3.5 mph - N/A   Partly Cloudy
2:52 AM 41.0 °F - 32.0 °F 70% 30.19 in 10.0 mi Calm Calm - N/A   Partly Cloudy
3:52 AM 39.9 °F - 32.0 °F 73% 30.19 in 10.0 mi Calm Calm - N/A   Partly Cloudy
4:52 AM 43.0 °F 39.5 °F 33.1 °F 68% 30.18 in 10.0 mi WSW 5.8 mph - N/A   Partly Cloudy
5:52 AM 39.9 °F 35.8 °F 32.0 °F 73% 30.17 in 10.0 mi SW 5.8 mph - N/A   Partly Cloudy
6:52 AM 39.0 °F 33.4 °F 33.1 °F 79% 30.17 in 10.0 mi SW 8.1 mph - N/A   Partly Cloudy
7:52 AM 43.0 °F 37.7 °F 33.1 °F 68% 30.16 in 10.0 mi SW 9.2 mph - N/A   Partly Cloudy
8:52 AM 48.9 °F - 34.0 °F 56% 30.15 in 10.0 mi SW 8.1 mph - N/A   Partly Cloudy
9:52 AM 55.0 °F - 35.1 °F 47% 30.12 in 10.0 mi SW 13.8 mph - N/A   Scattered Clouds
10:52 AM 59.0 °F - 30.9 °F 35% 30.10 in 10.0 mi WSW 11.5 mph 20.7 mph N/A   Scattered Clouds
11:52 AM 61.0 °F - 30.0 °F 31% 30.05 in 10.0 mi SW 18.4 mph - N/A   Partly Cloudy
12:52 PM 64.0 °F - 30.9 °F 29% 30.02 in 10.0 mi SW 18.4 mph 25.3 mph N/A   Partly Cloudy
1:52 PM 64.9 °F - 32.0 °F 29% 29.98 in 10.0 mi SW 21.9 mph 25.3 mph N/A   Partly Cloudy
2:52 PM 66.9 °F - 33.1 °F 28% 29.93 in 10.0 mi WSW 17.3 mph - N/A   Partly Cloudy
3:52 PM 69.1 °F - 34.0 °F 27% 29.90 in 10.0 mi SW 18.4 mph 31.1 mph N/A   Partly Cloudy
4:52 PM 69.1 °F - 34.0 °F 27% 29.86 in 10.0 mi SW 19.6 mph 34.5 mph N/A   Scattered Clouds
5:52 PM 68.0 °F - 35.1 °F 30% 29.84 in 10.0 mi SW 13.8 mph 21.9 mph N/A   Mostly Cloudy
6:52 PM 66.9 °F - 36.0 °F 32% 29.84 in 10.0 mi SW 11.5 mph - N/A   Mostly Cloudy
7:52 PM 64.0 °F - 37.0 °F 37% 29.85 in 10.0 mi SW 10.4 mph - N/A   Mostly Cloudy
8:52 PM 62.1 °F - 37.0 °F 39% 29.86 in 10.0 mi SW 11.5 mph - N/A   Mostly Cloudy
9:52 PM 60.1 °F - 37.0 °F 42% 29.87 in 10.0 mi SW 12.7 mph - N/A   Mostly Cloudy
10:52 PM 59.0 °F - 37.9 °F 46% 29.87 in 10.0 mi SW 13.8 mph - N/A   Mostly Cloudy
11:52 PM 61.0 °F - 37.9 °F 42% 29.86 in 10.0 mi SW 15.0 mph 21.9 mph N/A   Scattered Clouds